[[{"header":{"parameterUnit":"m.s-1","parameterCategory":1,"la1":30.2991,"la2":30.254,"lo1":-89.0895,"lo2":-89.0444,"dy":0.0017,"dx":0.0017,"nx":28,"ny":28,"refTime":"2024-09-24T21:00:00:Z","depth":0,"parameterNumber":2,"parameterNumberName":"U-component_of_WINDS"},"data":[0,0,0,0,0,0,0,0,0,0,0,0,0,0,0,0,0,0,0,0,0,0,0,0,0,0,0,0,0,0,0,0,0,0,0,0,0,0,0,0,0,0,0,0,0,0,0,0,0,0,0,0,0,0,0,0,0,0,-0.9728,-0.9728,0,-0.9742,-0.9742,-0.9742,-0.9721,-0.972,-0.9719,-0.9718,-0.9734,-0.9735,-0.9736,0,0,0,0,0,0,0,0,0,0,0,0,0,-0.9683,-0.9684,-0.9728,-0.9728,-0.9728,-0.9742,-0.9742,-0.9742,-0.9721,-0.972,-0.9719,-0.9718,-0.9734,-0.9735,-0.9737,0,0,0,0,0,0,0,0,0,0,0,0,0,-0.9701,-0.9685,-0.9728,-0.9719,-0.9718,-0.9742,-0.9742,-0.9742,-0.9721,-0.972,-0.9719,-0.9718,-0.9733,-0.9735,-0.9737,-0.977,0,0,-0.9742,-0.9743,0,0,0,0,0,0,0,0,-0.97,-0.9702,-0.972,-0.972,-0.9719,-0.9728,-0.9732,-0.9752,-0.9721,-0.972,-0.9718,-0.9717,-0.9733,-0.9735,-0.974,-0.9771,-0.9772,-0.9742,-0.9743,-0.9744,-0.9744,0,0,0,0,0,0,0,-0.9699,-0.9702,-0.9733,-0.972,-0.972,-0.9715,-0.9716,-0.9736,-0.9733,-0.972,-0.9718,-0.972,-0.9733,-0.9739,-0.974,-0.9772,-0.9742,-0.9743,-0.9745,-0.9745,-0.9832,-0.9833,0,0,0,0,0,0,-0.9698,-0.9701,-0.9733,-0.9734,-0.9706,-0.9717,-0.9718,-0.9726,-0.9733,-0.9732,-0.9721,-0.9719,-0.9736,-0.9738,-0.9741,-0.9781,-0.9744,-0.9745,-0.9746,-0.9831,-0.9832,-0.9833,0,0,0,0,0,0,-0.9697,-0.9701,-0.9732,-0.9717,-0.972,-0.9719,-0.9728,-0.9727,-0.9733,-0.9734,-0.9733,-0.9728,-0.9735,-0.9738,-0.9763,-0.9781,-0.9746,-0.9748,-0.9829,-0.9831,-0.9833,-0.9861,0,0,0,0,0,0,-0.9696,-0.9701,-0.9713,-0.9717,-0.9721,-0.9754,-0.9729,-0.9728,-0.9736,-0.9733,-0.9739,-0.9739,-0.9735,-0.9761,-0.9765,-0.9783,-0.9749,-0.9827,-0.983,-0.9832,-0.9859,-0.9864,-0.9869,0,0,0,0,0,-0.9695,-0.9721,-0.9714,-0.9718,-0.9736,-0.9755,-0.9757,-0.9751,-0.9737,-0.975,-0.9751,-0.9739,-0.9779,-0.9763,-0.9768,-0.9787,-0.9826,-0.9829,-0.9832,-0.9857,-0.9863,-0.9868,0,0,0,0,0,0,-0.9719,-0.9721,-0.9714,-0.9742,-0.9748,-0.9751,-0.9767,-0.9758,-0.9769,-0.9766,-0.9758,-0.976,-0.9787,-0.9789,-0.9772,-0.982,-0.98,-0.9804,-0.9817,-0.9824,-0.9828,-0.9827,-0.975,0,0,0,0,0,-0.9728,-0.9742,-0.9743,-0.9768,-0.9772,-0.9769,-0.9777,-0.9771,-0.9778,-0.9781,-0.9783,-0.9791,-0.9805,-0.9814,-0.9827,-0.9859,-0.9861,-0.9874,-0.9879,-0.9883,-0.9887,-0.9905,-0.9911,-0.9843,-0.9843,-0.9843,0,0,-0.9746,-0.9749,-0.9758,-0.9773,-0.9778,-0.9793,-0.9771,-0.9789,-0.9801,-0.9784,-0.9807,-0.9809,-0.9817,-0.9846,-0.9859,-0.9849,-0.9906,-0.9887,-0.989,-0.9892,-0.9909,-0.9915,-0.9921,-0.9845,-0.9845,-0.9844,0,0,-0.9787,-0.979,-0.9812,-0.9817,-0.9824,-0.9822,-0.9827,-0.9832,-0.9832,-0.9856,-0.9844,-0.9858,-0.9882,-0.9889,-0.9895,-0.994,-0.993,-0.9944,-0.9969,-0.9987,-0.9993,-0.9997,-1.0014,-1.002,-0.9948,-0.9948,-0.9948,0,-0.9809,-0.9831,-0.9824,-0.9842,-0.985,-0.9835,-0.9857,-0.9862,-0.9874,-0.9879,-0.9868,-0.9899,-0.9903,-0.9933,-0.9944,-0.995,-0.9956,-0.9943,-0.9992,-0.9997,-1.0001,-1.0017,-1.0023,-0.9949,-0.9949,-0.9949,-0.9949,0,-0.9858,-0.9874,-0.9891,-0.9902,-0.9911,-0.9931,-0.9928,-0.9938,-0.9932,-0.9932,-0.9956,-0.9961,-0.9975,-0.9982,-0.9976,-1.0012,-1.0006,-0.9993,-0.9973,-1.001,-1.0025,-1.0031,-0.9952,-0.9951,-0.9951,-0.995,0,0,-0.9915,-0.9922,-0.9928,-0.9933,-0.9941,-0.9953,-0.9973,-0.9987,-0.9996,-1.0005,-1.0022,-1.0043,-1.0032,-1.004,-1.0035,-1.005,-1.0086,-1.0036,-1.0036,-1.0046,-1.0127,-1.0137,-1.0144,-1.008,-1.0081,-1.0082,-1.0127,0,-0.9956,-0.9991,-0.9985,-1.0018,-1.0034,-1.002,-1.0038,-1.0045,-1.0045,-1.0058,-1.0059,-1.0074,-1.0058,-1.0063,-1.0078,-1.0079,-1.0103,-1.0075,-1.0097,-1.0097,-1.0095,-1.0151,-1.0161,-1.0203,-1.0132,-1.0133,-1.0134,0,-1.0009,-1.002,-1.0055,-1.006,-1.0067,-1.0082,-1.0095,-1.0108,-1.0115,-1.0115,-1.0123,-1.0116,-1.0137,-1.0116,-1.0145,-1.0127,-1.0135,-1.0137,-1.0139,-1.0141,-1.0118,-1.0156,-1.0216,-1.0223,-1.0143,-1.0142,-1.0142,0,-1.0048,-1.0071,-1.0095,-1.01,-1.0107,-1.0118,-1.0122,-1.0128,-1.0137,-1.0148,-1.0154,-1.0168,-1.0175,-1.0186,-1.0183,-1.0168,-1.0213,-1.0192,-1.0214,-1.0214,-1.0224,-1.0224,-1.0288,-1.0229,-1.0229,-1.0228,-1.0228,0,-1.0096,-1.0118,-1.0113,-1.0128,-1.0152,-1.0146,-1.0171,-1.0173,-1.0179,-1.0194,-1.0184,-1.0199,-1.0193,-1.0208,-1.0205,-1.0231,-1.0234,-1.0234,-1.0234,-1.0236,-1.0236,-1.0241,-1.0239,-1.023,-1.023,-1.0229,-1.0229,0,-1.0143,-1.0141,-1.0166,-1.0171,-1.0172,-1.0191,-1.0195,-1.0209,-1.0209,-1.0229,-1.0233,-1.0233,-1.025,-1.0247,-1.0267,-1.0265,-1.0296,-1.0292,-1.0294,-1.0293,-1.0315,-1.0313,-1.0386,-1.0395,-1.0329,-1.033,-1.033,0,-1.0174,-1.0191,-1.0197,-1.0207,-1.0211,-1.0226,-1.0235,-1.023,-1.024,-1.025,-1.0264,-1.028,-1.0293,-1.0321,-1.0323,-1.0337,-1.0333,-1.0358,-1.0336,-1.0337,-1.0335,-1.0334,-1.0336,-1.0362,-1.0363,-1.0364,-1.0364,0,-1.0229,-1.0227,-1.024,-1.0253,-1.0264,-1.0274,-1.0283,-1.0292,-1.0287,-1.0299,-1.0317,-1.0326,-1.0346,-1.0363,-1.0377,-1.0381,-1.0372,-1.0371,-1.0377,-1.038,-1.038,-1.0381,-1.0306,-1.0369,-1.0369,-1.0369,-1.0368,-1.0368,-1.027,-1.0285,-1.0291,-1.0307,-1.0313,-1.0322,-1.0336,-1.0337,-1.0351,-1.0367,-1.0363,-1.0382,-1.0391,-1.0409,-1.0414,-1.043,-1.0422,-1.043,-1.0432,-1.0435,-1.0438,-1.0377,-1.0433,-1.0433,-1.0433,-1.0432,-1.0432,0,-1.0325,-1.0329,-1.0343,-1.0356,-1.0368,-1.0359,-1.0368,-1.038,-1.0397,-1.0405,-1.0418,-1.0438,-1.0454,-1.0458,-1.0473,-1.0485,-1.0482,-1.049,-1.0489,-1.049,-1.0444,-1.0438,-1.0492,-1.0492,-1.0492,-1.0492,-1.0492,-1.0492,-1.0355,-1.038,-1.0379,-1.0407,-1.041,-1.043,-1.0436,-1.0445,-1.0451,-1.0474,-1.0487,-1.0489,-1.0496,-1.0512,-1.0527,-1.0527,-1.0534,-1.0543,-1.0543,-1.0499,-1.0494,-1.0488,-1.0482,-1.0545,-1.0545,-1.0588,-1.0588,-1.0588]},{"header":{"parameterUnit":"m.s-1","parameterCategory":1,"la1":30.2991,"la2":30.254,"lo1":-89.0895,"lo2":-89.0444,"dy":0.0017,"dx":0.0017,"nx":28,"ny":28,"refTime":"2024-09-24T21:00:00:Z","depth":0,"parameterNumber":3,"parameterNumberName":"V-component_of_WINDS"},"data":[0,0,0,0,0,0,0,0,0,0,0,0,0,0,0,0,0,0,0,0,0,0,0,0,0,0,0,0,0,0,0,0,0,0,0,0,0,0,0,0,0,0,0,0,0,0,0,0,0,0,0,0,0,0,0,0,0,0,3.6483,3.6483,0,3.6497,3.6497,3.6497,3.6456,3.6455,3.6454,3.6453,3.6465,3.6467,3.6468,0,0,0,0,0,0,0,0,0,0,0,0,0,3.6419,3.642,3.6483,3.6483,3.6483,3.6497,3.6497,3.6497,3.6456,3.6455,3.6453,3.6452,3.6465,3.6466,3.6468,0,0,0,0,0,0,0,0,0,0,0,0,0,3.6441,3.6421,3.6483,3.6465,3.6463,3.6497,3.6497,3.6497,3.6457,3.6455,3.6453,3.6451,3.6464,3.6466,3.6468,3.652,0,0,3.6475,3.6476,0,0,0,0,0,0,0,0,3.644,3.6444,3.6467,3.6466,3.6464,3.6473,3.6479,3.6505,3.6457,3.6459,3.6452,3.645,3.6469,3.6471,3.6477,3.652,3.6521,3.6475,3.6477,3.6478,3.6478,0,0,0,0,0,0,0,3.6438,3.6443,3.6488,3.6467,3.6466,3.6455,3.6456,3.6484,3.6474,3.6459,3.6456,3.6458,3.6468,3.6475,3.6477,3.6521,3.6475,3.6477,3.6479,3.648,3.6605,3.6607,0,0,0,0,0,0,3.644,3.6442,3.6488,3.6489,3.6447,3.6458,3.6459,3.6472,3.6474,3.6472,3.646,3.6456,3.6472,3.6475,3.6478,3.6536,3.6478,3.648,3.6481,3.6603,3.6606,3.6608,0,0,0,0,0,0,3.6438,3.6444,3.6487,3.6464,3.6469,3.6461,3.6476,3.6473,3.6481,3.6475,3.6473,3.6469,3.6471,3.6475,3.6509,3.6536,3.6481,3.6483,3.6601,3.6604,3.6607,3.6655,0,0,0,0,0,0,3.6437,3.6444,3.6464,3.6465,3.647,3.6519,3.6477,3.6475,3.6485,3.648,3.6483,3.6482,3.647,3.6506,3.6512,3.6538,3.6485,3.6598,3.6602,3.6606,3.6651,3.6659,3.6667,0,0,0,0,0,3.6435,3.6477,3.6465,3.6471,3.6495,3.6521,3.6524,3.651,3.6487,3.6506,3.6503,3.6481,3.6533,3.651,3.6516,3.6544,3.6597,3.6601,3.6605,3.6648,3.6658,3.6666,0,0,0,0,0,0,3.6478,3.6477,3.6463,3.6508,3.6515,3.6514,3.6538,3.6522,3.6535,3.653,3.6512,3.6513,3.655,3.6551,3.6525,3.6593,3.6561,3.6567,3.6591,3.66,3.6608,3.6606,3.6487,0,0,0,0,0,3.6493,3.6515,3.6512,3.6551,3.6556,3.6547,3.6557,3.6546,3.6552,3.6555,3.6554,3.656,3.6578,3.6589,3.6605,3.6652,3.6651,3.6674,3.6681,3.6688,3.6692,3.6715,3.6725,3.6622,3.6622,3.6622,0,0,3.6524,3.6526,3.654,3.656,3.6564,3.6586,3.6549,3.6574,3.659,3.6559,3.6591,3.659,3.6596,3.6637,3.6655,3.6638,3.6721,3.6694,3.6699,3.67,3.6721,3.6731,3.6739,3.6625,3.6625,3.6624,0,0,3.6591,3.6595,3.6627,3.6632,3.6639,3.6633,3.6641,3.6643,3.6641,3.6674,3.665,3.6669,3.67,3.6704,3.6711,3.6779,3.676,3.6785,3.6825,3.6847,3.6855,3.6862,3.6885,3.6894,3.679,3.679,3.679,0,3.6627,3.666,3.6646,3.6672,3.6681,3.6654,3.6686,3.6692,3.6703,3.671,3.6692,3.6729,3.6732,3.6772,3.6789,3.6796,3.6803,3.6784,3.6856,3.6863,3.6869,3.689,3.6899,3.6793,3.6793,3.6793,3.6792,0,3.6704,3.6727,3.6752,3.6764,3.6776,3.6805,3.6795,3.6808,3.6796,3.6792,3.6824,3.6826,3.6842,3.6851,3.6839,3.6889,3.6879,3.6859,3.6826,3.6882,3.6901,3.691,3.6797,3.6796,3.6796,3.6795,0,0,3.6797,3.6802,3.6811,3.6815,3.6821,3.6838,3.6866,3.6881,3.6892,3.6902,3.6923,3.695,3.6931,3.6939,3.6928,3.6948,3.7,3.6925,3.6925,3.6937,3.7053,3.7067,3.7076,3.6988,3.6989,3.6991,3.7052,0,3.6861,3.6909,3.6897,3.6943,3.6963,3.6939,3.6963,3.6968,3.6965,3.6981,3.6977,3.6996,3.697,3.6974,3.6994,3.699,3.7022,3.6985,3.7006,3.7007,3.7003,3.7087,3.7102,3.7159,3.706,3.7061,3.7062,0,3.6942,3.6954,3.7003,3.7005,3.7013,3.7034,3.7047,3.7063,3.7069,3.7065,3.7073,3.7058,3.7084,3.7053,3.7088,3.7063,3.7071,3.707,3.7072,3.7072,3.7036,3.7087,3.7177,3.7185,3.7074,3.7073,3.7072,0,3.7003,3.7032,3.7064,3.7069,3.7072,3.7088,3.709,3.7094,3.7103,3.7115,3.712,3.7134,3.7142,3.7153,3.7141,3.712,3.7177,3.7145,3.7173,3.7174,3.7185,3.7184,3.7276,3.7194,3.7194,3.7194,3.7193,0,3.7074,3.7104,3.7091,3.7111,3.7144,3.713,3.7162,3.7161,3.7165,3.7184,3.7164,3.7181,3.7167,3.7183,3.7174,3.7204,3.7208,3.7204,3.7201,3.7205,3.7205,3.7208,3.7203,3.7196,3.7195,3.7195,3.7195,0,3.7147,3.7139,3.7172,3.7173,3.7174,3.7198,3.7198,3.7215,3.7211,3.7234,3.7239,3.7232,3.725,3.724,3.7259,3.7253,3.729,3.7283,3.7288,3.7285,3.7313,3.731,3.7409,3.742,3.7333,3.7334,3.7335,0,3.7192,3.7214,3.7217,3.7228,3.7232,3.725,3.726,3.7247,3.7258,3.7266,3.7282,3.7299,3.7311,3.734,3.7336,3.735,3.7341,3.7375,3.7343,3.7346,3.7339,3.7337,3.7339,3.7381,3.7382,3.7383,3.7383,0,3.7272,3.7267,3.7282,3.7295,3.7308,3.7318,3.7326,3.7336,3.7323,3.7336,3.7355,3.7364,3.7383,3.7399,3.7411,3.7412,3.7395,3.7394,3.7401,3.7403,3.7405,3.7402,3.7303,3.7391,3.739,3.739,3.7389,3.7389,3.733,3.7349,3.7353,3.737,3.7375,3.7384,3.74,3.7397,3.7412,3.7427,3.7419,3.7439,3.7444,3.7458,3.7462,3.7477,3.7464,3.7474,3.7476,3.7479,3.7481,3.7404,3.748,3.748,3.7479,3.7479,3.7479,0,3.7408,3.7409,3.7425,3.7437,3.7451,3.7435,3.7443,3.7455,3.7474,3.748,3.7492,3.7512,3.7528,3.7525,3.7539,3.7552,3.7544,3.7555,3.7553,3.7553,3.7494,3.7486,3.7561,3.7561,3.7561,3.7561,3.7561,3.7561,3.7449,3.7479,3.7475,3.7506,3.7508,3.7528,3.7534,3.7541,3.7545,3.7569,3.7582,3.758,3.7582,3.7596,3.7609,3.7608,3.7613,3.7627,3.7622,3.7566,3.7558,3.755,3.7542,3.7628,3.7628,3.768,3.7681,3.7681]}]]